Regional Weather Roundup
Issued by NWS Green Bay, WI

Home | Current Version | Previous Version | Graphics & Text | Print | Product List | Glossary Off
Versions: 1 2 3 4 5 6 7 8 9 10 11 12 13 14 15 16 17 18 19 20 21 22 23 24 25 26 27 28 29 30 31 32 33 34 35 36 37 38 39 40 41 42 43 44 45 46 47 48 49 50

000
ASUS43 KGRB 061210
RWRGRB

NORTH-CENTRAL AND NORTHEAST WISCONSIN REGIONAL WEATHER ROUNDUP
NATIONAL WEATHER SERVICE GREEN BAY WI
700 AM CDT WED MAY 06 2015

WIZ005-009-010>012-018-019-061300-
NORTH CENTRAL WISCONSIN

CITY           SKY/WX    TMP DP  RH WIND       PRES   REMARKS
IRONWOOD       CLOUDY    54  30  40 SE10      30.14S
MANITOWISH WTR CLOUDY    51  38  61 S10       30.18S
ARBOR VITAE    DRIZZLE   52  41  65 S8        30.20R
EAGLE RIVER    PTSUNNY   51  30  45 S3        30.20R
LAND O LAKES   CLOUDY    47  38  69 CALM      30.21R
RHINELANDER    LGT RAIN  47  39  74 S3        30.21R
PHILLIPS       CLOUDY    47  45  92 SE8       30.17S
ANTIGO         CLOUDY    49  37  65 SE9       30.21R
TOMAHAWK       CLOUDY    45  42  91 SE3       30.21R FOG
MERRILL        RAIN      46  44  95 CALM      30.22R
$$

WIZ013-073-061300-
NORTHEAST WISCONSIN

CITY           SKY/WX    TMP DP  RH WIND       PRES   REMARKS
IRON MOUNTAIN  CLOUDY    45  37  73 CALM      30.22R
MARINETTE      CLOUDY    48  39  71 NE6       30.22F
OCONTO         CLOUDY    51  42  70 CALM      30.22R
$$

WIZ017-030-035>037-045-061300-
CENTRAL WISCONSIN

CITY           SKY/WX    TMP DP  RH WIND       PRES   REMARKS
MEDFORD        CLOUDY    47  43  85 E7        30.18R
WAUSAU         CLOUDY    47  43  86 SE6       30.19S
MOSINEE        CLOUDY    46  43  87 E8        30.20R
MARSHFIELD     CLOUDY    51  45  79 E12       30.17S
WISC RAPIDS    CLOUDY    52  44  74 SE7       30.19R
STEVENS POINT  CLOUDY    48  41  75 NE6       30.20R
WAUPACA        PTSUNNY   54  41  63 E5        30.21R
SHAWANO        LGT RAIN  51  44  77 CALM      30.22R
CLINTONVILLE   RAIN      46  45  93 NE3       30.22R
$$

WIZ038-039-048-051-061300-
FOX VALLEY

CITY           SKY/WX    TMP DP  RH WIND       PRES   REMARKS
NWS GREEN BAY  RAIN      52  44  74 SE7       30.22R
APPLETON       PTSUNNY   52  41  66 E7        30.22R
OSHKOSH        CLOUDY    51  44  77 E5        30.20R
FOND DU LAC    CLOUDY    51  46  83 E6        30.19S
$$

WIZ022-050-052-061300-
EAST CENTRAL WISCONSIN

CITY           SKY/WX    TMP DP  RH WIND       PRES   REMARKS
STURGEON BAY   CLOUDY    48  36  61 CALM      30.26R
MANITOWOC      CLOUDY    48  40  73 E3        30.23R
SHEBOYGAN      CLOUDY    47  43  86 CALM      30.21S
$$

LMZ563-521-522-541>543-061300-
LAKESHORE

STATION/POSITION TIME  TEMP    WIND        PRES    VSBY  WAVE
                       AIR SEA DIR/SP/G                  HT/PER
                 (UTC) (F)     (DEG/KT/KT) (MB)    (MI)  (FT/S)
SHEBOYGAN LKSHOR 1200   44      40/  2/  3 1024.0R
KEWAUNEE LKSHORE 1200   45      CALM  /  4 1022.7R
NORTHPORT PIER   1200   50     190/  3/  5 1023.7R
SISTER BAY LKSHO 1100   50        CALM       N/A
STURGEON BAY CG  1200   45      50/  3     1023.9      6   0
CHAMBERS ISLAND  1200   46      CALM  /  2 1024.0S
MENOMINEE LKSHOR 1200   48      20/  5/  5 1024.1S
$$


USA.gov is the U.S. government's official web portal to all federal, state and local government web resources and services.